BMCB-7 Weather Reports


time (UTC)temp
C
wind
direction
speed
KPH
gust
KPH
rain 1hr
cm
rain 24hr
cm
rain mn
cm
humidity
%
barometer
mb
20260506203054 8 7 6.4 11.3 0.00 1.47 1.32 91 1010.5
20260506202054 8 355 4.8 8.0 0.00 1.50 1.32 91 1010.5
20260506201059 8 355 4.8 8.0 0.00 1.55 1.32 93 1010.4
20260506195052 8 333 3.2 3.2 0.00 1.63 1.32 94 1010.1
20260506194052 8 9 1.6 4.8 0.00 1.65 1.32 95 1010.1
20260506193052 9 18 3.2 4.8 0.00 1.70 1.32 94 1009.9
20260506192052 9 60 1.6 3.2 0.00 1.73 1.32 93 1009.9
20260506191052 9 52 1.6 3.2 0.00 1.75 1.32 92 1009.9
20260506190054 9 52 1.6 3.2 0.00 1.78 1.32 92 1009.8
20260506185051 9 65 1.6 4.8 0.00 1.80 1.32 91 1009.7
20260506184051 9 81 1.6 4.8 0.00 1.83 1.32 91 1009.7
20260506182054 9 335 3.2 8.0 0.00 1.91 1.32 91 1009.4
20260506181050 9 274 4.8 6.4 0.00 1.91 1.32 92 1009.3
20260506180053 10 269 4.8 6.4 0.00 1.93 1.32 93 1009.2
20260506175053 10 269 4.8 6.4 0.00 1.93 1.32 92 1009.0
20260506174050 10 270 4.8 8.0 0.00 1.96 1.32 92 1008.9
20260506172052 10 269 4.8 8.0 0.00 2.01 1.32 92 1008.7
20260506171050 10 280 4.8 8.0 0.00 2.01 1.32 92 1008.6
20260506170047 10 289 4.8 8.0 0.00 2.03 1.32 92 1008.7
20260506165047 10 302 6.4 9.7 0.00 2.03 1.32 91 1008.6
20260506164049 10 300 6.4 9.7 0.00 2.03 1.32 90 1008.6
20260506163049 10 302 8.0 11.3 0.00 2.06 1.32 90 1008.6
20260506162052 10 313 8.0 12.9 0.00 2.06 1.32 89 1008.6
20260506161050 10 305 8.0 12.9 0.00 2.06 1.32 88 1008.6
20260506160048 10 313 6.4 11.3 0.00 2.08 1.32 88 1008.6
20260506155050 10 324 6.4 11.3 0.00 2.11 1.32 88 1008.6
20260506154053 10 340 4.8 8.0 0.00 2.11 1.32 88 1008.5
20260506153049 10 351 4.8 8.0 0.00 2.13 1.32 88 1008.5
20260506151052 10 20 1.6 4.8 0.00 2.16 1.32 87 1008.5
20260506144049 9 19 6.4 12.9 0.00 2.16 1.32 88 1008.7
20260506143047 9 20 6.4 9.7 0.00 2.16 1.32 89 1008.7
20260506142048 9 26 6.4 12.9 0.00 2.16 1.32 88 1008.6
20260506141048 9 27 6.4 12.9 0.00 2.16 1.32 88 1008.6
20260506140053 10 27 6.4 12.9 0.00 2.16 1.32 88 1008.5
20260506135050 10 15 11.3 19.3 0.00 2.16 1.32 89 1008.5
20260506134049 10 11 12.9 24.1 0.00 2.16 1.32 88 1008.5
20260506133048 10 22 8.0 16.1 0.00 2.16 1.32 87 1008.5
20260506132050 10 37 11.3 20.9 0.00 2.16 1.32 85 1008.4
20260506131047 10 19 11.3 19.3 0.00 2.16 1.32 86 1008.3
20260506130048 10 23 9.7 19.3 0.00 2.16 1.32 89 1008.2
20260506125048 10 35 9.7 17.7 0.00 2.16 1.32 89 1008.2
20260506123049 10 13 11.3 20.9 0.00 2.16 1.32 91 1008.1
20260506122049 10 10 12.9 20.9 0.00 2.16 1.32 92 1008.0
20260506121047 9 10 8.0 16.1 0.00 2.16 1.32 92 1007.9
20260506120047 9 359 12.9 20.9 0.00 2.16 1.32 94 1007.9
20260506115047 9 5 11.3 19.3 0.00 2.16 1.32 94 1007.8
20260506114048 9 1 12.9 19.3 0.00 2.16 1.32 95 1007.6
20260506113048 9 355 12.9 20.9 0.00 2.16 1.32 95 1007.6
20260506112048 9 1 11.3 19.3 0.00 2.16 1.32 96 1007.5
20260506111050 8 2 12.9 22.5 0.00 2.16 1.32 97 1007.6
20260506110047 8 2 11.3 19.3 0.00 2.16 1.32 96 1007.7
20260506105049 8 353 11.3 17.7 0.00 2.16 1.32 96 1007.7
20260506104050 8 354 11.3 17.7 0.03 2.16 1.32 96 1007.7
20260506103050 8 343 11.3 16.1 0.03 2.16 1.32 97 1007.7
20260506102049 8 349 9.7 14.5 0.03 2.16 1.32 97 1007.7
20260506101047 8 350 8.0 16.1 0.03 2.16 1.32 97 1007.7
20260506100046 8 348 9.7 12.9 0.05 2.16 1.32 97 1007.7
20260506095050 8 345 8.0 14.5 0.05 2.16 1.32 97 1007.7
20260506094048 8 350 8.0 12.9 0.05 2.16 1.32 97 1007.6
20260506093048 8 345 9.7 12.9 0.05 2.13 1.30 98 1007.5
20260506092048 8 350 8.0 14.5 0.05 2.13 1.30 98 1007.5
20260506091048 7 343 8.0 14.5 0.08 2.13 1.30 98 1007.4
20260506090049 7 349 8.0 11.3 0.08 2.13 1.30 97 1007.4
20260506085048 7 347 8.0 14.5 0.05 2.11 1.27 97 1007.4
20260506084048 7 351 9.7 14.5 0.05 2.11 1.27 97 1007.3
20260506083045 7 349 8.0 12.9 0.05 2.11 1.27 97 1007.1
20260506081023 7 359 8.0 12.9 0.10 2.08 1.24 98 1007.1
20260506073045 7 357 9.7 16.1 0.15 2.03 1.19 98 1006.9
20260506072046 7 357 9.7 17.7 0.20 2.03 1.19 98 1006.8
20260506071045 7 358 11.3 19.3 0.20 2.03 1.17 98 1006.7
20260506062022 7 3 8.0 17.7 0.18 1.88 1.04 98 1006.3
20260506051047 7 4 11.3 17.7 0.15 1.70 0.86 98 1006.2
20260506045022 7 3 9.7 17.7 0.15 1.65 0.81 98 1006.3
20260506042045 7 10 9.7 16.1 0.15 1.60 0.76 98 1006.1
20260506041042 7 11 11.3 17.7 0.15 1.57 0.74 98 1006.1
20260506040047 7 13 9.7 16.1 0.13 1.55 0.71 98 1006.1
20260506034048 7 16 9.7 16.1 0.10 1.50 0.66 98 1006.1
20260506032044 7 12 8.0 12.9 0.10 1.47 0.64 98 1006.1
20260506031045 7 11 11.3 19.3 0.08 1.45 0.61 98 1006.2
20260506030045 7 7 11.3 17.7 0.08 1.45 0.61 98 1006.2
20260506025043 7 6 9.7 19.3 0.08 1.42 0.58 98 1006.2
20260506024046 7 9 8.0 12.9 0.08 1.40 0.56 98 1006.2
20260506023047 7 10 9.7 17.7 0.10 1.40 0.56 98 1006.2
20260506022045 8 14 8.0 14.5 0.10 1.37 0.53 98 1006.2
20260506021047 8 17 9.7 12.9 0.13 1.37 0.53 98 1006.2
20260506020046 8 13 8.0 12.9 0.15 1.37 0.53 98 1006.2
20260506015047 8 19 8.0 16.1 0.15 1.37 0.51 98 1006.3
20260506014047 8 21 9.7 14.5 0.15 1.35 0.51 98 1006.3
20260506013047 8 21 8.0 16.1 0.15 1.32 0.48 98 1006.4
20260506011044 8 20 8.0 12.9 0.15 1.27 0.43 98 1006.4
20260506010033 8 16 9.7 16.1 0.15 1.27 0.43 98 1006.4
20260506004045 8 16 8.0 12.9 0.15 1.22 0.38 98 1006.5
20260506003023 8 20 8.0 16.1 0.15 1.19 0.36 98 1006.5
20260506001023 8 21 8.0 14.5 0.15 1.14 0.30 98 1006.8
20260506000044 8 14 8.0 16.1 0.18 1.14 0.30 98 1006.9
20260505235049 8 8 6.4 11.3 0.18 1.12 0.28 98 1007.0
20260505234050 8 17 9.7 17.7 0.18 1.09 0.25 98 1007.0
20260505233049 8 17 9.7 17.7 0.18 1.09 0.23 98 1007.0
20260505231050 8 29 9.7 17.7 0.15 0.99 0.15 98 1007.0
20260505225053 8 30 11.3 17.7 0.15 0.97 0.13 97 1007.0
20260505224051 8 31 11.3 17.7 0.15 0.94 0.10 97 1007.0
20260505223050 8 27 12.9 20.9 0.13 0.91 0.08 97 1007.1
20260505222051 8 27 9.7 19.3 0.13 0.89 0.05 97 1007.1
20260505221051 8 24 9.7 16.1 0.10 0.86 0.03 97 1007.2
20260505220049 8 22 8.0 12.9 0.10 0.84 0.00 98 1007.2
20260505215056 8 22 8.0 12.9 0.13 0.84 0.84 98 1007.2
20260505214055 8 26 8.0 12.9 0.13 0.81 0.81 98 1007.3
20260505213054 8 18 8.0 14.5 0.13 0.79 0.79 98 1007.3
20260505212055 8 15 8.0 12.9 0.15 0.79 0.79 98 1007.4
20260505211053 8 20 9.7 14.5 0.18 0.79 0.79 98 1007.4
20260505210052 8 19 9.7 17.7 0.18 0.76 0.76 98 1007.5
20260505205051 8 20 11.3 17.7 0.20 0.74 0.74 98 1007.5
20260505204054 8 16 8.0 16.1 0.23 0.71 0.71 98 1007.5